Theta_e
339 342 343 348 350 351 351 351 351 350 351 351 351 351 351 351 350 349 350 349 349 350 350 350 349 349 349 349 349 349 349 349 348 348 348 348 348 348 348 348 349 349 349 350 349 350 350 350 350 350 348 347 346 345 344 344 344 345 345 346 347 347 347 348 348 349 350 352 350 350 349 350 351 351 352 352 353 353 353 354 351 350 349 351 352
338 342 342 346 350 351 351 351 351 351 351 351 351 351 350 350 349 350 349 349 349 349 350 349 349 349 349 349 349 349 349 348 348 348 348 347 348 348 348 348 348 348 348 349 350 350 350 349 349 348 347 346 344 343 343 342 342 343 344 345 346 347 347 347 347 348 349 350 350 351 350 350 349 350 351 351 352 352 352 352 351 348 348 352 353
342 342 343 346 349 350 350 351 351 351 352 352 351 351 350 350 349 349 350 349 349 349 350 349 349 348 348 349 349 349 349 348 349 348 348 348 348 348 348 348 348 348 349 348 348 349 348 349 347 346 344 343 342 341 340 340 340 341 342 344 344 345 346 346 347 347 347 349 349 348 347 348 348 349 349 349 350 351 350 351 351 350 348 352 351
342 342 343 346 346 348 351 351 351 351 351 351 351 351 350 350 349 349 349 349 349 349 349 349 349 349 348 349 349 348 348 348 348 348 348 348 348 348 348 348 348 347 348 347 347 348 347 347 346 345 343 341 340 339 339 338 338 339 340 342 343 344 344 344 345 346 346 345 347 346 346 345 345 348 348 349 349 350 348 350 351 350 351 351 351
342 343 343 345 346 347 350 351 351 351 351 351 351 351 350 350 349 350 350 349 349 349 348 348 349 348 348 349 348 349 347 347 348 347 347 348 347 348 348 347 348 348 348 348 347 347 346 345 344 342 341 339 338 338 337 336 337 338 339 340 341 341 342 342 343 343 344 346 345 343 346 346 345 348 348 348 348 347 348 348 349 350 350 350 351
340 344 344 344 346 346 348 351 351 350 351 350 351 351 350 350 350 349 350 349 349 349 349 348 348 348 349 348 348 348 348 347 346 347 347 347 347 347 347 347 348 347 347 347 347 346 345 344 342 341 339 338 337 336 336 336 335 336 337 338 339 340 340 340 340 341 342 343 340 341 345 344 344 346 349 349 348 347 346 346 346 347 348 349 350
341 344 343 343 345 345 345 351 351 351 351 350 351 350 350 350 350 350 350 349 348 349 349 348 348 349 349 348 348 347 346 347 347 347 346 346 347 346 347 347 347 346 347 346 346 345 343 342 341 340 338 336 336 335 335 334 334 334 334 335 337 338 339 338 339 340 340 338 333 339 341 345 345 345 347 347 348 347 346 346 346 347 348 348 348
338 344 342 342 345 344 345 350 351 351 351 351 351 351 350 350 349 349 349 349 349 349 349 348 348 348 348 348 347 347 347 347 347 346 346 346 345 346 345 345 345 346 346 345 345 343 342 341 340 338 337 335 334 334 334 334 333 332 332 333 334 335 336 336 337 338 339 334 336 339 339 344 344 344 346 347 347 347 348 348 348 348 348 348 346
337 343 341 342 344 343 345 348 351 350 351 351 351 350 350 350 350 349 349 348 349 349 349 348 349 348 348 347 347 348 348 347 346 346 345 345 344 343 342 342 343 345 344 343 342 341 340 339 338 337 336 334 333 332 331 331 331 331 332 331 333 333 334 334 336 337 332 333 336 336 339 342 342 343 345 346 347 347 346 345 345 346 346 345 345
337 341 342 342 343 341 344 348 351 351 351 351 352 351 350 350 350 349 349 348 348 349 349 349 348 348 348 348 347 346 346 346 346 346 345 343 341 340 341 340 340 340 341 339 339 339 337 337 336 335 334 333 331 330 329 328 329 329 330 330 332 333 333 334 335 333 331 333 336 336 342 344 341 342 345 346 346 345 344 342 342 341 343 344 344
336 339 341 342 344 341 346 349 350 350 351 351 352 351 350 350 350 349 348 348 348 348 349 348 348 348 348 348 347 346 346 346 344 343 342 340 339 339 340 339 339 338 338 338 337 336 335 335 334 333 332 331 329 328 328 327 327 328 329 328 329 330 331 331 332 328 332 333 334 335 343 344 339 340 344 344 344 343 342 342 343 342 342 342 342
336 337 339 341 339 341 345 347 349 350 350 351 351 351 350 350 350 349 348 348 348 348 348 348 348 348 348 347 346 346 346 344 342 341 341 340 339 338 338 338 337 336 336 335 335 335 334 334 333 332 330 328 327 327 326 325 325 325 325 326 327 328 329 330 330 330 331 333 333 335 337 338 339 341 343 343 343 341 341 341 341 341 341 341 341
334 335 340 342 340 339 343 347 347 349 350 351 351 351 350 349 349 349 348 348 348 348 348 349 348 348 347 347 346 346 345 343 342 341 340 339 338 337 337 337 336 336 335 334 334 333 333 333 332 330 328 326 326 325 324 323 323 324 324 325 326 326 326 328 327 327 329 330 332 333 336 335 336 341 341 341 341 340 339 339 339 339 339 338 339
334 335 342 343 340 337 341 344 346 348 349 351 350 350 349 349 348 348 348 348 348 348 349 349 347 347 347 346 346 345 344 342 342 341 339 338 337 336 336 337 336 334 332 332 332 333 333 331 330 328 326 325 324 323 322 322 321 322 323 323 323 324 325 323 328 325 326 327 328 329 330 331 333 339 339 340 340 338 337 337 337 336 336 336 336
332 335 339 343 340 339 337 341 343 345 347 349 349 348 349 349 348 348 348 348 348 348 348 348 347 347 346 346 345 344 343 343 341 337 335 335 334 334 333 333 332 331 332 331 331 331 331 330 328 326 325 324 323 323 322 321 320 320 321 321 321 322 323 316 323 324 326 327 328 328 328 329 337 336 337 337 337 337 337 336 336 335 335 335 334
334 336 337 341 340 339 338 337 339 341 342 345 346 346 347 347 347 348 348 348 347 348 347 347 347 347 347 346 346 344 343 342 337 336 335 334 334 333 332 332 332 331 331 331 331 331 330 328 327 325 323 323 323 321 320 319 319 318 319 319 319 321 321 317 318 320 321 324 325 327 326 328 333 333 333 334 334 334 335 335 335 334 334 334 334
336 335 335 336 340 339 339 339 337 335 337 339 340 342 344 345 346 347 347 347 347 347 347 347 347 346 347 346 345 343 342 342 337 336 335 334 333 333 332 332 332 331 331 332 331 330 328 327 325 324 323 322 321 320 319 318 317 317 317 317 318 319 319 317 319 318 320 323 325 324 323 326 330 331 330 331 331 331 332 332 332 332 333 333 333
333 335 334 335 337 339 340 339 339 339 341 336 334 337 340 342 344 344 344 344 344 345 345 344 344 344 342 340 339 338 339 339 338 335 334 334 333 332 332 332 331 331 330 331 330 329 328 325 324 323 322 322 320 320 318 316 315 315 315 315 315 317 317 315 315 317 318 323 321 322 321 330 329 329 329 329 328 329 329 330 330 330 330 331 331
330 333 334 333 335 336 339 339 338 340 342 341 339 336 334 337 339 340 340 341 342 341 341 341 339 339 337 335 334 332 331 333 332 333 334 332 331 329 331 331 330 330 330 330 329 328 327 325 324 323 322 320 319 318 316 314 313 313 313 312 313 313 313 315 312 314 316 319 320 319 321 329 327 328 327 327 327 327 328 328 329 328 329 328 329
327 331 331 332 333 333 336 338 339 339 340 340 340 338 331 330 335 337 337 338 338 337 336 336 332 330 328 327 327 326 325 326 325 327 328 330 328 325 327 330 330 330 330 329 328 327 326 325 323 322 320 319 317 315 313 312 311 310 309 309 311 310 307 309 310 312 315 318 319 318 326 327 327 327 327 326 327 327 327 327 327 326 327 328 328
328 328 330 331 332 332 333 337 338 338 338 339 339 338 336 328 329 330 331 332 333 332 332 328 323 321 320 320 320 325 324 323 323 324 321 323 320 321 326 330 330 331 329 328 327 326 325 324 323 321 319 317 314 313 311 311 310 308 307 308 310 303 305 306 307 311 314 315 316 317 326 325 326 327 327 327 327 327 326 326 326 326 326 326 326
324 325 328 329 331 331 332 334 336 337 338 338 338 338 336 331 333 333 331 329 327 325 326 326 322 322 320 320 324 324 324 324 323 323 322 322 320 319 321 326 331 330 329 327 326 325 325 324 322 321 319 314 310 301 302 307 306 306 307 310 303 300 302 303 305 309 311 314 314 319 326 325 325 326 325 324 324 325 325 325 325 326 325 326 326
322 324 325 328 329 331 332 332 332 336 336 337 337 335 334 332 333 332 332 328 326 325 326 325 324 324 322 323 322 324 324 324 323 323 323 320 321 318 321 324 329 328 327 327 325 324 324 324 322 320 316 311 304 299 298 297 295 302 303 302 299 299 300 301 303 308 309 312 311 320 324 325 324 324 324 325 324 325 325 325 324 324 324 325 325
322 324 325 328 328 329 331 332 331 333 334 334 334 333 332 331 332 331 330 329 328 326 326 326 325 325 324 323 322 322 323 323 322 320 321 320 319 317 319 321 322 323 322 322 324 324 323 323 321 318 314 307 302 298 298 296 294 295 299 298 298 299 299 299 301 305 308 312 310 319 322 326 325 323 324 324 324 324 324 324 324 324 323 323 323
321 325 324 327 328 330 330 331 331 331 331 333 333 333 331 330 330 331 330 328 327 326 326 326 325 325 324 323 322 321 323 321 320 319 319 319 317 317 317 318 317 316 318 315 316 316 315 312 311 308 301 301 300 299 298 296 296 297 299 298 298 298 298 299 300 302 306 307 308 317 319 323 327 324 324 324 323 324 324 324 323 323 323 322 322
321 323 324 326 327 329 330 331 331 331 330 330 331 331 329 329 329 329 329 328 327 326 326 325 325 325 324 323 323 322 321 321 319 319 319 318 318 316 317 317 315 315 316 314 311 312 309 307 305 302 299 298 299 299 299 299 298 298 297 297 297 298 298 298 299 300 305 306 306 315 317 320 325 324 324 323 323 323 323 323 322 322 322 322 322
319 320 324 325 327 328 329 329 330 330 330 330 329 328 328 327 328 328 328 328 327 326 325 325 325 325 324 322 322 320 319 318 318 317 317 318 317 317 317 316 315 314 314 312 311 310 307 304 300 300 298 298 299 299 299 299 298 298 298 298 298 297 297 297 297 299 302 304 308 313 315 319 324 323 323 323 323 323 323 322 322 322 322 322 322
316 320 322 324 325 327 329 329 329 329 330 330 329 328 327 327 326 324 326 325 325 325 325 325 325 324 324 322 320 320 319 318 318 317 316 316 316 316 316 315 315 314 313 311 310 308 306 301 298 297 298 299 299 299 299 299 298 298 298 298 298 296 296 296 297 298 301 304 303 308 313 318 322 323 322 323 323 322 322 321 321 321 321 321 321
312 319 321 322 324 326 328 328 329 329 330 330 329 328 327 327 326 325 325 323 324 324 324 324 324 323 324 322 320 320 319 319 316 317 316 314 314 315 315 314 314 313 312 309 310 307 303 298 297 298 298 298 297 296 297 297 296 297 298 297 297 296 296 296 297 298 298 302 303 304 312 315 320 321 321 322 322 322 322 320 321 321 320 320 320
311 315 320 320 322 325 326 327 328 329 329 329 328 327 327 326 326 326 325 323 323 323 323 323 323 322 323 321 321 320 319 318 314 315 315 312 313 314 314 313 313 312 310 309 306 303 299 296 297 298 297 297 297 296 295 295 295 296 296 296 296 296 295 296 296 297 297 302 302 301 309 313 316 321 320 320 321 321 321 320 320 320 320 319 319
311 311 317 320 320 323 324 326 327 326 328 328 327 327 326 325 325 326 325 323 323 323 322 322 321 321 321 321 320 319 318 316 314 314 313 311 313 314 313 313 312 310 309 306 304 300 297 297 297 296 296 296 295 295 295 295 295 296 296 296 295 295 295 295 296 296 297 299 302 302 303 309 313 316 320 319 319 320 319 320 319 319 319 318 318
312 312 313 317 319 322 323 324 325 325 326 327 326 326 325 325 325 326 325 323 323 322 322 321 319 320 320 320 320 318 316 314 313 313 312 311 312 313 312 310 309 306 306 302 300 299 297 297 297 296 296 295 295 294 296 294 294 295 295 295 294 294 294 294 295 296 296 298 301 301 301 303 309 312 315 319 320 320 320 319 318 318 318 318 318
313 313 313 313 318 319 322 322 324 324 324 325 325 326 325 325 324 325 325 324 322 322 321 320 320 320 320 320 319 318 314 313 312 313 311 311 311 311 309 308 307 304 303 300 299 297 297 296 298 297 295 295 294 294 296 294 294 295 295 294 293 294 294 294 294 295 296 296 298 300 302 301 300 305 309 312 316 318 319 318 318 317 317 317 317
312 311 312 312 315 319 321 322 322 322 322 324 323 323 323 322 322 323 323 323 321 321 320 320 320 318 318 319 319 318 315 312 312 311 310 310 310 310 308 306 304 302 301 299 297 296 295 296 296 295 298 295 294 294 293 294 293 292 293 293 293 293 293 294 293 294 295 296 295 297 300 302 300 299 300 306 310 314 316 316 317 317 316 316 316
312 312 311 312 313 317 320 321 319 320 319 320 320 320 320 320 320 321 321 321 320 320 320 320 319 317 317 317 318 316 315 312 310 311 309 309 308 307 307 305 303 301 299 298 297 296 296 296 295 295 293 293 293 294 293 293 292 293 293 292 293 292 292 293 294 293 294 294 294 295 296 299 300 300 299 297 301 308 313 315 316 315 316 315 315
307 313 313 313 312 314 316 315 316 317 318 319 318 319 319 319 318 318 319 318 318 319 318 319 318 316 315 314 316 315 313 311 309 309 308 307 307 306 306 303 302 300 298 297 297 295 295 296 295 294 292 292 293 292 292 292 292 293 292 292 293 293 292 292 293 293 293 293 293 294 293 293 297 299 300 296 295 300 308 311 313 314 314 314 314
307 307 311 312 312 313 314 315 315 316 317 318 317 316 317 317 317 317 318 317 317 316 316 316 317 316 312 311 313 313 312 311 308 308 308 306 305 305 304 303 301 299 298 297 295 295 295 296 293 294 292 291 291 290 291 293 293 293 291 292 291 291 291 292 292 292 294 292 292 293 293 292 292 298 293 294 294 294 302 306 308 308 308 310 313
306 305 308 310 311 311 313 313 314 315 316 317 317 316 316 316 316 315 315 317 315 315 315 315 315 313 312 310 311 311 311 310 308 307 306 305 304 304 303 302 300 298 297 296 294 294 294 294 292 292 292 293 292 291 291 293 294 293 291 291 291 291 291 291 291 294 291 291 291 291 291 291 290 291 291 292 292 292 294 300 304 304 303 306 310
305 304 306 308 308 309 312 311 312 313 314 316 315 315 316 315 315 314 314 314 314 314 314 313 312 313 311 310 310 311 309 309 308 306 304 303 302 302 302 301 299 297 296 295 293 293 294 293 292 292 293 293 292 292 292 293 293 293 292 291 291 292 292 291 290 290 290 291 291 292 293 290 290 291 291 290 290 289 289 291 292 291 293 302 306
305 305 305 306 307 308 309 309 309 311 312 313 315 313 313 311 311 312 312 312 312 312 313 312 312 311 310 309 309 309 308 308 307 304 303 302 300 299 300 300 298 297 295 294 293 292 293 293 291 292 292 292 293 292 292 292 291 290 289 289 290 291 292 291 290 289 290 291 290 290 290 289 291 290 291 290 291 290 289 289 290 290 292 297 301
304 304 304 305 305 306 306 307 307 308 309 309 311 310 309 310 310 309 309 310 310 310 311 311 311 310 308 308 307 308 306 305 305 304 303 301 300 297 298 298 297 296 295 294 294 293 293 293 293 292 292 291 291 292 292 291 289 287 288 288 289 291 291 291 290 289 290 290 290 289 289 289 289 290 290 290 290 290 290 290 290 290 289 289 293
302 303 303 303 304 305 304 305 306 306 307 308 309 310 309 308 308 307 308 308 308 308 308 309 309 310 308 306 305 305 305 305 304 303 302 301 299 296 297 297 296 296 295 295 293 293 293 293 293 291 292 291 290 292 292 290 287 286 285 287 287 288 289 288 288 289 290 290 290 289 289 289 289 290 290 289 289 290 289 289 288 290 288 288 288
302 302 302 303 303 303 304 304 305 304 304 306 307 307 309 309 309 308 308 308 309 308 308 307 308 308 307 306 305 305 305 304 304 303 303 302 299 297 297 296 296 295 294 294 293 292 293 293 292 292 291 290 290 293 292 291 286 286 287 286 284 284 287 286 287 289 290 289 289 288 290 289 289 289 290 289 289 289 289 288 289 289 289 289 288
300 300 301 301 303 302 303 303 304 304 304 304 303 305 306 307 307 305 306 306 303 304 305 305 306 306 306 305 303 303 303 302 302 302 302 301 300 298 296 296 296 295 295 294 293 293 293 292 292 291 292 290 290 291 292 290 288 289 284 285 283 284 283 285 284 286 288 289 289 289 289 289 289 289 289 289 289 289 289 288 288 289 289 288 289
299 299 299 300 301 301 302 302 303 303 303 303 303 303 305 304 305 303 302 302 301 300 301 301 303 303 303 303 302 302 302 301 301 301 300 300 299 299 296 296 295 295 294 294 293 293 293 293 293 292 291 291 289 289 291 290 289 292 289 285 285 284 283 285 284 285 286 286 287 288 288 289 289 289 288 287 288 288 288 288 288 288 288 289 288
297 298 299 299 299 299 300 301 302 302 302 302 303 302 302 302 301 300 299 298 298 299 297 298 300 300 301 300 301 301 301 300 300 300 299 298 298 298 297 295 294 294 294 294 293 292 292 292 293 292 291 290 290 289 289 291 290 290 291 289 287 284 284 286 285 282 285 285 286 287 287 288 288 289 288 287 288 287 288 288 288 288 288 288 288
297 298 298 298 298 298 298 299 299 300 302 301 302 301 300 300 300 300 299 298 298 299 300 301 300 300 302 301 301 300 300 300 299 298 298 298 298 298 297 296 295 294 294 293 293 293 293 293 293 292 291 291 288 288 289 290 289 289 291 292 291 288 289 286 283 282 280 283 285 286 286 287 288 288 288 287 288 287 288 288 288 288 288 288 288
296 297 297 297 297 297 297 298 298 298 299 300 300 301 300 299 299 299 299 298 298 298 299 299 299 299 299 300 300 299 299 300 299 298 298 298 297 297 297 296 295 294 293 293 293 292 293 293 292 293 292 291 290 289 289 289 289 289 290 290 291 290 289 289 289 286 282 281 282 284 286 286 287 287 287 287 288 288 287 287 287 287 287 287 288
296 296 296 297 297 297 296 297 297 297 298 298 299 299 300 299 299 299 298 299 299 299 299 299 298 298 298 298 297 297 298 298 298 298 297 297 297 297 296 295 295 294 293 293 292 292 292 292 292 292 291 291 291 290 289 289 289 289 288 287 289 290 290 287 288 288 282 281 281 282 283 285 286 286 287 287 288 288 288 287 287 287 287 287 287
295 296 296 296 296 296 296 296 296 296 297 297 298 298 298 298 298 298 297 297 298 299 298 298 298 298 296 297 296 296 295 296 296 296 296 296 296 295 295 295 295 295 293 292 292 292 292 292 292 292 292 291 291 291 291 290 290 289 288 289 288 288 287 287 286 286 286 285 283 281 283 283 282 285 287 287 287 288 288 287 287 287 287 286 287
293 293 294 294 295 295 295 295 295 296 296 296 296 296 297 297 297 296 296 296 296 297 296 296 296 296 297 296 295 295 295 295 295 295 296 295 295 294 294 295 295 294 293 292 292 292 292 292 292 292 291 291 291 291 291 290 289 289 288 288 289 290 290 289 287 286 288 285 284 282 283 284 284 283 285 287 287 287 288 287 287 287 286 286 287
Wind_Speed
4 11 10 15 16 17 18 17 16 16 15 14 13 13 13 12 12 11 11 11 11 11 11 11 10 10 9 9 8 8 7 7 6 6 5 5 5 4 3 4 4 5 6 8 9 10 11 11 12 13 12 12 12 11 11 11 10 10 10 11 11 11 9 9 9 8 8 9 10 11 10 10 11 11 12 12 13 13 11 9 9 8 5 8 11
6 10 10 11 16 16 18 17 17 16 15 15 14 13 13 12 12 11 11 11 11 11 11 10 10 10 9 9 8 8 7 7 7 6 6 5 4 4 3 4 4 5 6 7 10 11 11 11 12 13 12 12 11 11 11 10 10 10 10 10 10 9 9 8 8 8 7 8 9 8 9 10 10 11 12 12 13 13 12 12 12 6 4 10 12
7 9 9 11 15 16 16 17 17 16 15 15 14 13 13 12 11 11 11 11 11 10 10 10 10 9 9 8 8 8 8 7 7 7 7 6 5 4 4 5 5 6 9 9 9 11 11 13 12 12 12 12 11 11 11 11 10 10 9 9 10 9 9 8 7 6 6 5 9 9 10 9 10 10 11 12 13 13 11 12 11 9 6 11 10
9 8 9 12 15 15 15 15 16 15 15 14 14 13 13 12 12 12 11 11 10 10 10 10 9 9 9 8 8 8 7 7 7 7 7 7 6 5 5 6 7 8 10 9 9 11 10 12 11 11 11 11 10 10 10 10 9 9 9 9 9 8 8 8 7 6 6 4 5 7 3 4 5 9 11 12 13 13 11 10 10 11 13 12 12
8 9 9 10 11 12 14 14 15 15 15 15 14 14 14 13 13 12 12 11 11 10 10 9 9 8 8 8 8 8 8 7 7 8 8 8 8 7 7 8 9 10 10 10 9 10 11 11 9 10 10 10 10 9 9 8 8 8 8 7 7 7 7 7 7 6 5 5 7 3 0 5 4 7 10 12 12 11 10 10 10 12 12 12 12
6 9 10 9 9 10 14 14 15 15 15 15 14 14 14 13 13 12 12 11 11 11 10 10 9 9 9 8 7 7 7 8 8 9 9 9 8 8 8 8 9 9 10 10 10 10 10 9 7 8 9 9 9 8 8 7 7 7 7 7 6 6 6 6 6 7 7 7 6 3 3 5 2 3 10 11 11 11 11 10 11 10 11 12 12
7 9 10 10 8 10 14 14 17 14 15 15 14 15 14 14 13 12 12 12 11 11 10 10 10 9 9 8 8 7 7 8 9 9 9 9 9 9 9 9 9 8 9 9 9 9 9 8 6 6 8 9 8 7 7 7 6 6 6 6 6 6 5 5 6 7 8 7 5 3 5 5 4 2 7 9 10 11 12 12 11 11 11 11 12
5 8 10 9 8 11 14 14 16 15 15 14 14 14 14 13 13 13 12 12 11 11 11 11 10 9 8 8 8 9 9 9 10 10 11 10 10 9 8 6 7 8 9 9 9 8 9 6 4 4 6 7 7 6 6 6 6 6 5 5 5 5 6 5 6 7 9 5 3 3 3 6 5 3 6 9 11 11 12 13 13 13 13 13 11
5 8 10 9 8 16 14 14 15 17 16 15 13 13 13 13 11 12 12 12 11 11 11 10 10 9 9 8 9 10 10 11 11 10 10 10 8 7 6 6 5 7 6 7 6 5 5 5 4 2 4 6 6 5 5 6 6 6 6 5 5 5 5 6 6 8 6 3 5 4 6 5 6 5 8 11 13 14 14 12 11 12 13 12 9
5 5 9 8 9 17 14 14 16 17 17 14 13 13 13 13 12 12 12 12 12 11 11 10 10 9 9 9 10 11 11 11 10 10 11 10 8 6 6 6 7 3 4 3 4 4 3 2 3 2 2 5 5 5 5 5 5 5 6 6 5 5 6 7 8 6 4 3 2 6 7 9 6 5 8 11 13 14 13 11 8 8 6 9 9
6 5 7 8 12 17 16 14 14 16 17 16 13 13 14 13 12 13 13 12 11 11 11 11 10 10 9 10 11 11 11 11 11 9 9 8 7 5 5 5 5 6 1 3 2 3 2 2 2 2 2 5 5 5 5 5 5 6 6 6 6 6 7 8 8 4 4 4 5 2 7 10 5 3 9 11 12 12 12 9 8 8 9 9 9
6 4 5 5 15 19 18 16 13 14 15 15 15 15 14 14 12 13 13 12 12 12 11 11 10 10 10 11 11 12 12 10 10 10 10 8 7 6 6 5 4 3 5 0 0 1 2 2 3 4 4 5 5 5 5 5 5 5 6 6 6 6 8 9 5 3 4 4 3 4 5 6 5 7 11 9 10 10 9 9 9 9 8 8 8
5 5 4 7 10 16 18 17 14 13 14 14 16 16 15 15 14 13 13 12 12 12 11 9 10 11 12 12 12 12 12 11 11 10 9 8 7 6 3 6 5 6 6 1 2 2 2 3 6 6 5 5 5 5 5 5 5 5 6 6 7 7 8 9 4 5 4 5 4 3 4 4 4 8 8 9 9 9 8 8 8 7 7 6 7
5 5 7 6 6 13 17 16 14 13 14 14 17 16 16 17 16 15 14 13 12 11 10 9 11 12 12 12 12 12 12 12 10 9 8 7 7 5 5 6 6 6 3 4 3 4 4 5 7 6 6 6 5 5 5 5 5 6 6 6 7 8 9 6 5 4 3 3 3 8 6 4 3 8 8 8 9 8 7 6 7 6 6 6 7
5 4 6 7 6 7 13 14 12 12 12 14 16 14 14 16 15 14 14 13 12 11 11 11 11 13 13 13 13 11 10 10 9 9 9 7 6 5 4 4 3 4 4 4 5 5 5 5 6 6 6 6 6 6 5 5 6 6 6 6 6 7 7 4 2 2 3 4 3 6 5 4 6 8 7 6 8 7 6 6 5 5 5 6 6
4 4 5 8 7 6 7 9 11 10 11 13 14 14 14 13 13 13 15 14 13 13 12 13 13 12 12 12 11 11 10 11 12 11 9 8 6 5 5 4 5 5 5 5 6 6 5 6 7 7 6 6 6 6 5 5 6 6 7 6 6 6 7 5 2 3 4 4 4 5 5 5 9 6 5 5 5 4 6 5 4 4 4 4 5
4 5 4 6 8 7 7 6 7 9 10 11 12 12 13 14 14 13 14 13 14 14 13 13 13 12 11 9 8 9 9 9 13 12 11 9 8 6 5 6 6 7 6 6 6 6 6 7 7 7 6 6 6 6 5 5 5 6 6 6 5 6 7 6 4 3 3 3 6 5 5 5 6 6 5 4 5 4 4 4 4 4 4 5 6
4 5 4 4 6 8 6 6 6 6 6 9 10 11 12 13 14 13 13 12 12 12 11 11 10 10 8 7 7 8 9 9 11 11 11 9 8 7 5 6 6 7 6 6 7 6 7 8 7 7 7 7 6 6 6 5 5 6 6 5 5 6 6 7 3 2 2 4 6 5 5 6 7 6 5 4 3 3 3 3 4 3 3 4 5
4 5 4 4 5 7 8 7 6 6 7 6 5 7 11 11 12 12 12 11 10 10 10 10 10 9 8 8 9 9 9 9 10 10 9 9 8 6 3 7 7 7 7 7 7 7 7 7 8 7 7 7 6 6 6 6 6 5 5 4 4 4 7 5 3 3 4 6 5 5 4 6 4 4 4 4 2 3 3 3 3 3 4 4 4
4 5 5 5 6 6 7 7 8 7 6 6 6 6 7 9 10 11 11 11 10 10 9 8 9 9 8 8 9 7 7 7 11 8 10 10 9 6 5 6 8 8 8 8 8 7 7 8 8 7 7 7 7 6 6 5 6 6 5 4 5 6 3 2 3 4 5 6 5 5 6 6 4 5 3 3 3 4 4 4 5 5 5 6 5
3 5 5 6 6 6 7 8 8 9 8 7 7 7 7 9 7 9 10 10 10 10 9 9 8 9 8 9 9 6 5 5 6 5 9 6 9 8 7 6 8 7 8 8 8 8 8 8 8 8 8 8 8 7 7 6 6 5 4 5 6 3 4 5 4 4 5 5 5 5 8 3 4 4 5 5 4 5 5 6 5 5 6 6 6
6 5 5 5 7 6 7 8 9 11 10 8 6 6 7 10 7 6 6 7 8 8 6 5 6 4 9 8 6 6 6 5 4 7 5 6 7 8 7 6 6 6 7 8 9 9 9 8 8 9 9 9 7 3 3 5 5 5 4 4 3 3 4 4 4 6 5 4 4 6 10 3 3 4 4 4 4 4 4 4 5 6 6 7 6
6 6 7 9 8 7 7 8 8 11 11 10 7 7 7 8 8 8 6 7 6 6 5 6 5 6 5 6 6 6 5 6 5 6 6 8 7 9 8 7 6 7 8 7 8 10 9 9 9 9 9 8 3 4 2 2 1 3 3 3 4 4 3 3 4 5 5 4 4 8 10 5 2 3 4 5 5 5 4 5 5 6 6 5 6
8 9 8 7 7 8 9 9 8 10 11 9 7 7 6 8 8 8 7 7 6 6 5 5 6 5 6 6 5 5 5 5 8 11 9 6 7 9 9 8 7 9 9 6 8 9 10 10 10 10 7 3 2 3 2 1 0 1 2 1 3 2 2 3 3 4 4 4 3 9 9 9 4 2 4 4 4 5 5 5 5 5 5 4 4
8 8 7 9 10 9 9 9 9 8 10 9 9 8 6 8 8 8 7 7 7 7 6 6 6 6 7 6 5 4 4 4 5 6 6 6 6 5 5 5 5 5 8 4 5 4 4 5 5 5 3 3 2 5 4 2 2 3 2 4 2 1 3 3 3 3 4 4 4 8 9 9 9 3 4 4 4 4 4 5 5 5 5 4 4
8 8 10 9 10 10 9 9 10 9 9 9 10 9 8 8 8 8 8 7 8 7 7 6 7 7 6 6 6 5 5 5 5 6 6 6 7 6 6 6 6 6 6 6 5 5 4 5 4 4 5 4 4 5 6 6 6 4 4 3 2 1 1 2 2 2 4 4 3 8 8 9 9 3 4 4 5 4 4 5 4 4 4 4 4
7 8 9 8 10 10 10 9 10 9 10 9 8 7 9 7 8 8 8 8 8 8 8 8 8 7 7 7 7 6 6 6 6 6 6 6 7 6 7 6 6 6 6 7 5 6 6 6 6 5 5 4 3 2 1 1 3 4 4 2 2 3 3 2 1 2 4 4 4 7 8 9 10 3 3 4 5 4 4 3 3 4 4 3 3
6 7 8 9 10 13 13 11 11 10 9 10 9 8 7 8 8 8 9 8 8 8 8 8 7 8 8 7 7 7 7 7 6 7 6 5 6 6 6 6 6 6 6 6 6 6 6 6 6 5 4 4 4 3 2 2 3 4 4 2 1 3 4 3 2 1 4 3 3 5 8 8 9 7 3 4 4 5 5 4 3 4 3 3 3
6 8 9 9 11 12 13 13 11 12 10 10 10 9 8 8 7 7 8 8 7 7 8 7 7 7 8 8 8 7 7 7 7 7 6 6 6 7 7 6 6 6 7 6 6 7 6 7 7 6 5 5 4 4 4 3 4 4 5 3 2 4 4 3 1 1 2 4 4 4 7 8 9 7 1 3 5 5 5 4 4 4 3 3 3
9 8 7 8 7 10 12 13 12 12 11 10 10 9 9 9 9 8 7 7 7 6 6 7 7 7 8 7 9 8 7 8 7 7 7 6 6 7 7 7 7 7 8 7 6 7 7 6 6 5 6 5 5 5 5 4 4 4 5 4 4 4 4 4 3 1 1 5 4 3 6 7 8 9 5 1 2 3 4 5 5 4 4 3 3
8 8 8 9 8 10 11 12 11 10 9 10 10 10 9 10 9 8 7 8 7 7 7 7 7 7 7 7 7 7 7 7 7 7 7 7 6 7 7 7 7 7 8 6 6 7 6 7 7 7 7 7 7 6 6 5 4 4 4 4 3 4 4 3 2 2 2 4 4 3 3 7 8 9 9 3 1 3 2 5 5 4 5 4 3
8 10 9 8 9 10 12 11 12 11 11 11 10 10 10 9 9 8 8 7 7 7 7 7 7 7 7 7 7 7 7 7 7 7 8 7 7 7 7 7 7 7 8 6 7 7 6 5 6 5 5 5 6 6 5 6 5 4 3 3 3 4 4 3 3 1 2 4 4 3 3 4 8 9 10 10 8 9 9 5 2 3 4 4 4
7 8 8 6 8 8 9 10 11 10 11 11 10 10 9 8 8 8 8 7 7 7 7 7 7 7 7 8 8 8 7 8 8 8 8 8 7 7 7 7 7 7 7 7 7 6 6 6 6 5 6 5 6 5 5 5 5 5 5 4 3 4 4 4 3 2 2 2 4 4 3 3 4 7 9 10 10 9 8 6 5 1 2 3 3
7 5 4 5 4 4 5 6 9 10 11 9 8 8 8 7 7 7 7 7 7 8 7 7 7 7 7 8 8 9 8 7 7 8 8 8 7 7 7 7 7 6 7 7 8 7 7 7 6 7 6 6 6 5 6 6 5 5 4 4 4 4 3 4 4 3 2 1 2 4 4 4 3 4 4 8 10 9 8 6 6 6 3 2 2
1 2 5 6 5 5 5 5 6 7 8 8 7 7 6 6 6 6 6 6 6 7 6 6 7 7 7 7 8 8 9 7 7 8 8 8 8 7 8 7 7 7 7 7 8 7 7 7 7 7 5 6 5 5 4 6 6 6 4 3 5 4 3 4 4 4 3 2 2 3 4 4 4 3 3 4 6 7 9 8 6 5 5 3 2
3 0 3 4 5 4 5 4 5 5 5 6 5 5 5 4 4 4 4 4 5 5 5 6 6 6 6 6 7 7 7 7 6 7 8 7 8 8 8 7 7 8 7 7 7 8 7 7 6 7 7 5 6 5 4 6 5 5 4 4 4 4 4 4 4 3 2 2 2 2 2 3 4 4 4 4 3 4 7 8 8 8 8 6 3
6 5 2 3 2 3 4 4 4 5 4 4 3 3 3 4 3 3 3 4 5 4 4 4 4 6 6 6 6 7 6 7 6 7 8 7 7 8 8 8 7 8 8 8 8 7 8 7 7 6 7 7 7 6 4 6 5 4 4 4 4 4 4 4 4 4 3 3 2 2 1 3 2 4 4 4 3 3 4 6 7 7 7 5 3
8 9 5 3 2 4 4 3 3 3 2 4 4 3 3 3 2 3 3 4 3 3 4 4 4 5 5 6 6 7 7 7 7 7 7 7 7 7 7 8 8 8 8 8 8 7 6 8 8 6 8 7 7 8 6 5 5 5 4 4 3 1 3 4 4 3 4 3 4 3 3 3 3 1 2 5 4 3 2 3 6 6 5 4 3
9 9 8 7 7 6 5 4 4 3 2 4 4 3 2 3 3 3 2 2 3 3 3 4 4 5 5 5 7 7 7 7 7 6 7 7 6 7 7 7 8 8 7 7 7 7 7 7 8 7 6 7 8 7 7 7 6 4 4 3 2 1 1 3 3 4 3 3 4 3 3 4 3 2 2 4 5 4 3 2 2 2 2 4 3
11 11 11 9 8 6 6 4 3 3 2 4 5 4 3 3 3 2 2 1 2 2 1 3 3 4 4 5 5 6 6 6 6 5 5 5 5 5 7 7 8 8 8 8 8 8 10 9 9 9 8 5 6 7 7 7 5 5 4 3 1 1 0 1 2 3 3 4 4 3 4 4 4 3 3 3 5 5 5 4 3 3 2 1 2
14 13 11 10 9 7 5 5 3 3 3 3 4 4 3 2 1 2 1 1 1 1 1 1 2 3 4 4 5 6 5 5 5 5 6 6 6 4 5 6 7 8 9 10 9 9 8 8 8 7 9 7 5 6 7 8 8 4 3 2 1 0 0 0 2 3 3 5 4 4 3 3 4 4 4 3 4 4 5 5 5 5 4 2 1
14 15 13 12 11 10 9 4 4 4 3 3 4 3 2 2 2 1 1 1 3 2 2 2 2 1 3 4 4 5 5 6 5 5 5 6 6 6 6 7 7 8 8 7 7 7 7 7 7 6 5 9 7 9 9 10 3 7 6 2 0 2 3 3 4 4 4 4 5 5 4 5 5 4 4 3 4 4 4 4 4 5 4 4 3
13 14 13 13 13 11 10 8 6 5 5 5 5 3 2 1 2 1 2 0 1 2 3 2 3 2 2 4 5 6 6 7 7 8 8 7 8 7 7 7 7 7 7 8 8 9 9 10 10 10 7 4 4 6 11 11 7 6 4 5 2 1 2 2 4 6 5 4 4 6 5 6 6 5 6 4 5 4 3 4 4 4 5 5 4
12 13 13 12 10 11 10 10 10 9 7 7 7 6 5 6 6 7 6 7 3 3 4 3 2 1 2 1 2 4 4 5 5 5 5 5 6 7 6 7 8 7 8 9 9 11 9 9 9 9 9 9 6 8 8 8 6 11 3 6 4 4 2 8 7 4 6 6 5 6 5 6 6 5 5 6 5 5 5 4 4 4 4 4 4
12 12 12 12 10 12 11 10 10 11 9 8 8 6 5 5 5 5 4 3 3 3 2 1 0 1 0 1 3 3 4 4 5 5 5 6 6 6 6 6 7 7 7 8 9 10 10 11 13 11 12 13 10 6 7 8 8 10 9 5 2 2 7 2 5 2 5 5 5 5 4 5 5 6 6 5 5 6 6 4 4 4 4 4 4
12 11 9 11 12 12 12 11 9 9 10 8 8 7 5 3 2 1 0 1 1 1 2 4 4 4 5 3 3 4 4 4 4 5 5 5 6 6 6 6 6 7 7 8 7 6 8 10 11 11 11 10 11 8 8 8 8 8 6 5 8 8 6 4 5 4 0 4 4 5 5 6 5 6 5 5 6 7 6 6 5 5 5 4 4
10 8 10 11 13 12 11 11 10 9 9 9 8 8 7 6 5 4 4 3 4 2 1 1 5 6 5 4 5 4 4 5 4 4 5 5 5 5 6 6 6 6 6 7 7 8 8 9 8 10 11 9 7 10 12 11 6 7 8 7 2 1 4 8 6 5 1 3 4 6 6 6 6 7 7 7 6 7 7 7 7 6 5 5 5
9 10 12 12 13 13 12 11 9 10 10 9 9 9 7 7 7 6 5 5 4 4 4 5 3 2 2 4 4 4 4 4 4 4 5 5 5 5 6 6 6 5 6 7 8 7 6 6 8 10 9 9 11 12 11 9 14 12 12 9 6 3 3 1 3 10 7 7 6 4 4 6 6 8 8 9 8 8 8 7 7 7 6 6 6
12 12 11 11 11 11 12 11 12 10 10 11 10 9 8 8 7 7 7 7 6 6 7 6 5 1 0 1 3 3 4 4 4 4 4 5 5 6 5 5 6 6 6 6 7 7 8 8 9 9 11 10 10 9 8 11 12 12 10 9 5 6 4 4 2 2 5 5 3 8 6 3 4 6 8 9 8 8 8 8 8 8 7 6 7
9 9 10 10 11 10 13 13 13 10 9 11 10 10 9 9 8 7 7 6 7 6 5 6 5 6 2 1 2 2 3 4 4 4 4 4 4 4 5 5 6 6 6 5 6 7 7 7 9 10 11 11 9 10 12 8 10 9 11 10 11 5 4 4 5 4 2 4 8 9 8 11 10 10 8 9 9 9 8 8 8 8 8 7 7
9 10 11 10 10 11 10 12 11 10 11 11 10 10 9 9 8 8 7 7 7 6 7 6 7 6 7 5 2 4 3 5 5 4 4 4 4 4 5 6 5 5 6 5 6 7 7 7 7 8 10 12 10 11 10 8 8 10 10 9 12 13 15 13 12 8 8 5 3 4 6 10 13 6 9 11 9 9 9 8 9 9 9 8 8
Wind_Direction
165 137 147 152 153 160 161 163 164 165 166 165 165 166 164 163 156 156 157 157 156 154 149 148 146 143 142 139 136 132 127 128 120 112 106 108 106 105 113 106 114 120 125 118 111 106 102 93 84 82 77 74 72 70 70 69 68 68 70 73 73 75 71 69 63 53 53 65 77 75 73 74 73 72 72 69 60 53 47 52 72 66 58 64 73
139 136 145 155 155 160 163 162 165 166 168 167 168 168 166 164 162 161 163 160 159 156 153 153 152 150 146 146 143 141 139 136 132 126 123 125 130 133 120 117 120 123 123 123 115 108 98 90 85 81 77 70 63 63 61 61 61 62 62 60 62 63 64 56 52 54 54 65 70 68 66 71 73 79 77 72 64 56 51 60 67 67 62 69 64
120 136 146 155 156 160 163 164 167 168 169 169 169 169 167 164 162 165 167 165 164 161 160 159 157 155 156 155 151 152 152 152 145 148 141 137 131 124 118 115 106 115 104 102 112 99 93 86 82 81 78 73 64 59 58 57 56 56 58 58 55 50 44 42 38 29 42 37 93 80 75 68 69 72 80 78 70 61 57 70 73 69 70 73 71
132 134 147 155 156 159 163 164 168 169 169 173 171 169 166 164 164 169 169 169 168 166 165 164 165 164 163 165 163 163 160 156 151 151 141 137 127 111 110 109 109 97 106 111 108 101 90 83 82 83 80 78 73 62 60 58 57 56 56 55 53 49 43 29 20 11 6 7 107 100 81 79 65 75 76 77 77 69 58 59 75 73 71 68 67
133 136 144 154 157 159 163 165 166 169 171 173 171 170 168 165 166 170 170 172 173 171 169 169 170 175 173 176 175 164 164 154 152 142 137 134 126 120 117 116 116 117 116 114 108 101 87 81 83 88 86 84 78 71 64 60 58 55 51 51 53 50 40 30 7 351 337 301 281 286 111 102 87 80 81 79 79 77 73 69 72 79 73 69 67
139 134 144 158 158 161 163 166 168 170 173 174 173 170 169 170 168 171 174 176 178 175 175 174 180 183 187 183 182 167 163 154 146 139 131 126 121 120 124 121 117 122 124 117 104 94 95 84 82 92 95 90 86 80 72 67 61 57 52 45 42 44 40 21 0 335 319 319 302 251 170 97 66 75 92 92 88 82 79 75 72 65 75 71 66
142 133 150 159 160 162 164 166 170 170 175 176 173 173 173 174 172 174 178 180 182 183 181 184 186 191 191 188 175 169 162 153 141 136 128 118 111 117 117 116 116 111 107 103 98 91 88 86 78 80 90 90 88 86 82 76 70 61 53 45 35 29 23 17 349 326 322 321 311 300 110 109 93 67 90 92 97 94 85 76 73 69 65 72 67
147 138 153 161 161 162 165 168 171 171 175 179 176 177 176 175 177 178 183 183 186 188 186 189 190 195 193 190 175 172 167 153 143 137 124 113 108 109 110 113 115 111 103 100 96 94 84 90 80 63 72 81 85 84 80 72 68 67 61 50 37 24 10 354 340 325 312 299 267 52 62 104 107 80 73 74 71 72 79 78 69 63 59 62 54
160 145 154 158 159 160 165 169 172 173 176 180 177 181 182 179 181 182 187 188 189 190 192 193 192 195 197 187 174 176 166 155 149 138 124 114 112 104 78 67 110 118 107 104 103 93 92 96 105 72 73 83 84 81 78 69 60 58 55 51 39 24 3 343 330 322 314 291 25 30 60 90 83 85 80 78 76 70 64 60 59 57 55 57 60
160 162 156 161 153 162 166 169 175 175 177 179 175 181 184 183 183 186 191 191 191 195 195 196 195 195 196 181 174 170 164 157 150 138 127 112 90 78 77 73 48 45 127 110 94 116 119 116 125 107 74 86 82 76 68 64 58 51 50 45 36 18 0 344 331 315 299 352 49 55 81 92 82 81 85 83 79 74 69 69 71 65 57 54 59
160 184 148 166 152 161 167 171 176 178 180 179 177 178 188 185 183 191 193 193 192 198 196 197 196 195 188 179 170 163 159 152 138 129 129 114 111 102 104 80 62 42 339 174 180 173 186 189 148 127 110 91 88 84 74 68 59 50 47 45 33 19 0 346 333 300 350 18 22 46 99 96 99 106 91 83 78 79 76 68 65 68 66 63 63
160 190 163 139 156 161 166 171 178 182 181 178 178 178 185 188 185 192 195 194 194 196 197 196 195 185 179 172 171 162 153 151 139 137 133 135 139 147 136 117 107 83 20 288 219 212 186 169 136 107 109 96 90 83 78 69 60 52 47 43 35 21 2 342 321 8 6 8 14 47 71 84 88 92 89 85 80 74 76 78 72 62 63 65 66
164 189 118 127 153 164 166 169 176 183 182 179 181 180 183 186 186 192 195 194 195 193 194 183 184 177 175 169 167 163 160 155 157 157 147 153 157 159 182 151 156 169 160 157 233 192 160 163 119 120 110 102 92 84 78 72 67 61 50 43 35 19 359 340 3 19 21 5 357 28 78 83 86 93 89 85 81 75 68 64 65 63 58 58 63
161 185 115 134 147 166 165 170 175 177 181 180 185 184 185 185 187 188 192 193 191 190 180 167 173 173 169 169 166 170 162 164 170 158 152 161 161 162 190 192 226 275 260 220 207 182 168 147 120 119 112 106 101 94 90 86 78 69 60 48 30 17 2 337 14 25 5 358 7 53 49 36 71 92 88 80 76 75 72 68 66 63 59 57 54
167 186 134 126 139 165 168 169 175 178 180 180 185 182 184 186 183 183 184 187 180 178 174 167 171 171 172 175 174 171 186 163 165 154 137 141 147 157 174 210 209 186 197 192 181 181 173 137 125 120 114 111 107 103 97 90 81 69 65 51 36 16 4 340 2 28 6 355 15 75 63 28 69 82 79 80 77 69 61 62 57 58 52 53 59
162 177 144 130 148 155 166 171 177 179 180 181 181 178 180 184 181 183 181 180 175 174 175 170 172 174 180 182 182 183 180 164 157 151 148 144 145 162 178 190 171 172 181 180 176 169 157 134 124 119 119 117 115 109 101 92 84 75 63 55 35 13 359 3 328 44 32 7 3 60 46 36 47 70 91 73 67 64 48 50 51 45 47 51 50
148 185 149 143 150 156 167 167 174 181 179 181 181 182 179 181 179 185 181 180 176 175 176 175 179 178 182 186 180 177 164 181 151 153 148 149 152 165 175 184 178 176 183 185 178 172 159 137 127 128 129 127 120 116 107 95 85 77 69 57 37 13 0 5 49 33 34 8 49 41 37 18 42 64 68 78 69 59 39 41 44 50 53 56 54
164 183 162 169 156 158 168 168 166 171 181 182 183 182 181 181 181 182 181 180 178 179 180 180 182 180 180 175 155 158 168 170 156 150 147 144 148 160 177 188 188 181 189 190 181 169 159 141 136 134 134 130 123 116 108 100 89 81 71 56 36 10 359 2 56 45 358 36 69 49 25 5 56 66 63 59 71 72 67 48 53 58 67 66 67
183 185 182 175 180 162 171 172 170 171 179 182 182 185 183 183 186 182 181 183 185 182 182 182 183 180 173 168 156 156 161 154 152 148 143 138 139 128 160 192 190 190 194 188 177 171 164 145 142 139 134 128 120 112 105 97 92 84 75 58 19 359 354 15 11 12 36 46 55 42 14 354 109 82 81 81 70 96 76 81 83 91 74 76 91
193 184 198 195 185 180 167 175 173 177 182 178 184 182 191 192 189 188 188 189 190 187 183 181 180 170 157 146 149 146 145 146 146 145 142 140 131 126 146 191 194 192 190 186 179 175 176 152 147 142 131 121 109 94 90 88 80 72 62 28 4 349 1 21 359 25 61 64 55 34 357 11 109 109 95 100 103 96 101 104 106 86 76 80 78
208 199 202 196 195 190 177 173 175 180 184 181 186 187 184 190 202 198 195 197 193 188 184 177 168 157 144 140 140 141 140 133 142 136 134 136 139 141 155 192 198 189 183 185 182 181 183 159 151 142 129 107 86 73 62 66 62 56 37 5 348 2 15 9 16 37 52 57 50 23 1 35 75 99 107 109 111 112 117 112 108 96 94 83 81
193 201 209 203 194 199 194 181 177 180 186 186 188 189 184 183 188 193 197 197 193 185 176 164 161 153 146 147 151 151 146 144 154 136 141 135 144 145 162 183 207 173 170 182 182 181 182 161 154 143 120 103 94 74 50 40 41 37 3 342 350 45 14 11 32 32 42 63 47 8 5 19 103 106 119 121 122 126 121 124 126 122 102 91 98
195 195 204 205 197 196 195 197 180 181 183 189 190 188 176 181 189 186 186 188 186 180 173 166 168 154 159 165 165 162 160 153 162 148 152 145 148 152 167 175 195 147 151 162 176 181 180 161 154 134 122 121 117 105 94 68 36 348 328 343 46 39 26 14 37 57 43 47 45 6 5 14 114 141 125 132 128 135 140 126 104 98 107 114 114
196 191 194 198 198 198 200 200 191 183 183 188 186 185 170 181 186 187 182 181 179 183 179 174 174 161 168 172 176 172 170 164 163 159 144 153 148 154 164 168 149 135 138 141 168 174 177 162 143 132 123 153 164 119 104 72 60 286 302 31 53 21 28 39 52 86 80 58 31 8 6 6 6 153 159 146 146 145 148 138 122 110 97 100 99
193 178 175 190 196 195 193 200 197 193 187 186 188 191 170 177 184 185 181 177 177 178 188 182 178 176 168 175 180 173 167 160 139 150 143 143 139 148 155 145 135 135 133 132 135 151 134 112 118 118 149 191 218 146 145 172 213 240 224 92 73 32 41 38 37 71 88 74 36 12 9 357 353 224 171 165 152 167 144 129 124 110 113 119 111
177 169 187 186 192 195 193 195 195 194 189 186 190 190 180 172 182 184 180 180 182 181 185 186 184 183 172 174 173 175 167 160 142 155 154 146 147 154 160 152 143 148 146 145 146 142 135 136 140 156 192 206 204 162 173 177 199 193 120 122 138 115 85 61 42 46 85 79 33 22 6 356 347 291 172 172 166 172 151 149 143 126 115 119 132
175 187 177 185 186 190 193 190 196 193 191 191 189 182 193 177 177 185 187 191 185 186 187 190 188 181 177 172 170 178 168 164 151 159 164 156 155 160 166 162 155 155 168 151 162 160 157 157 156 183 209 185 180 133 101 119 130 111 104 108 131 120 106 101 66 58 87 88 59 22 8 358 352 330 184 179 175 173 153 145 130 133 140 134 124
175 186 181 180 180 190 191 187 192 191 190 190 191 189 191 190 187 182 190 193 182 184 184 192 186 179 177 174 168 171 165 170 161 162 173 158 162 161 166 168 161 160 177 165 162 165 170 161 165 190 190 143 127 124 120 85 92 110 110 111 101 105 105 88 81 77 114 115 79 25 14 4 359 347 204 192 183 178 169 161 145 149 162 139 124
197 188 188 182 184 187 188 190 188 192 190 187 194 193 190 191 192 190 189 187 189 184 180 179 186 179 179 173 168 170 167 171 164 167 164 172 164 164 167 176 166 164 170 192 163 165 173 165 171 182 149 138 140 158 154 157 150 136 129 146 122 103 101 101 84 60 107 117 90 40 22 14 9 11 316 219 188 184 190 175 170 161 166 147 146
214 200 180 195 183 182 188 190 189 190 188 186 192 191 192 190 194 196 190 182 187 177 171 178 184 177 181 177 174 171 171 173 162 163 169 181 170 167 166 176 173 164 168 188 168 156 171 165 165 159 150 153 156 180 150 168 145 135 140 152 143 148 137 127 151 173 109 108 110 76 35 23 22 26 21 335 181 195 187 180 167 180 168 162 168
207 206 192 191 187 175 187 189 188 187 185 191 190 194 188 193 190 191 185 184 178 173 174 174 179 177 177 176 173 171 166 168 161 166 170 178 175 169 172 170 169 168 167 169 160 158 168 168 165 162 163 160 170 166 150 141 132 113 137 138 148 124 131 142 127 119 115 123 124 114 65 40 37 32 26 73 137 198 222 192 180 198 183 176 169
203 213 206 187 181 182 184 186 186 185 186 192 191 195 195 191 187 186 190 183 176 177 175 174 178 175 170 172 170 172 166 171 164 168 170 175 175 172 169 163 170 160 162 156 159 164 166 167 161 159 162 156 154 163 152 143 144 147 134 136 130 122 131 124 120 113 113 119 125 137 105 73 50 47 39 50 67 58 43 41 144 206 193 185 185
220 213 210 187 187 185 179 185 185 184 189 190 190 194 195 190 184 188 188 180 180 176 177 178 175 172 169 171 173 174 172 171 172 170 170 173 171 166 166 165 162 158 159 157 157 162 155 153 162 152 157 142 140 168 151 147 140 145 141 168 131 129 138 127 132 97 102 135 154 154 138 105 81 57 49 44 50 69 62 65 64 92 158 169 181
208 217 193 206 184 179 171 180 188 186 190 190 185 189 193 191 184 185 184 178 180 181 181 174 170 168 167 172 174 176 178 174 168 171 167 169 170 167 166 166 164 160 158 154 161 163 155 151 162 145 158 143 151 165 147 138 140 144 144 159 130 149 136 128 145 151 165 180 155 138 147 143 113 89 70 53 48 57 71 78 79 65 92 110 147
158 149 179 195 177 172 166 179 187 191 183 188 182 183 185 186 182 179 181 179 179 182 178 174 168 167 166 176 178 177 181 178 171 166 171 167 167 167 171 173 163 160 158 164 159 163 152 157 155 150 152 143 149 164 158 151 147 148 152 160 145 150 132 140 129 144 165 198 117 146 152 166 135 131 102 85 54 48 62 75 84 93 77 83 109
29 145 156 160 177 163 161 160 167 182 174 185 175 163 175 177 169 169 172 175 171 177 176 177 166 164 167 172 181 177 180 181 172 167 172 174 170 171 175 167 164 159 159 161 159 166 160 154 167 153 156 169 153 174 169 149 146 146 158 159 146 141 148 134 137 155 188 141 143 148 151 140 141 151 146 105 90 57 70 77 82 79 73 64 92
36 22 88 132 133 129 133 126 147 179 157 167 162 144 141 159 152 156 158 153 164 167 166 160 160 168 161 166 177 178 182 181 176 174 175 178 172 170 173 170 163 162 162 167 169 170 159 158 171 173 163 164 162 168 169 147 144 146 144 130 149 156 152 155 162 174 157 163 175 172 108 82 88 137 120 123 115 91 70 84 83 71 57 62 78
24 17 25 99 131 109 129 122 110 148 133 143 152 141 123 123 129 133 139 144 156 151 155 154 170 170 165 168 170 177 183 184 182 178 179 184 176 170 171 169 163 161 161 167 176 170 163 158 167 183 171 159 162 165 166 147 138 131 117 118 138 148 172 152 162 149 156 187 164 171 147 125 123 202 118 138 133 124 100 97 100 83 55 54 71
24 20 25 33 50 61 89 78 83 95 100 107 124 119 104 88 89 92 117 124 135 142 150 159 170 167 178 162 167 179 185 188 187 181 177 182 181 175 170 170 161 162 160 167 174 173 166 166 167 181 179 173 163 169 160 144 133 125 122 136 136 180 156 133 136 153 185 186 175 185 136 148 170 194 135 133 147 141 147 160 120 94 66 50 59
26 24 24 28 35 43 75 65 56 80 83 87 95 93 86 95 106 81 91 121 116 150 171 165 156 164 171 158 164 174 180 188 190 183 178 180 184 183 172 165 167 161 165 169 180 178 177 175 178 173 175 168 158 156 138 129 105 106 115 84 72 65 27 102 148 195 199 179 179 160 155 174 162 173 161 173 146 158 162 179 174 150 130 88 71
24 18 26 30 27 26 63 88 66 71 80 81 93 106 115 95 84 134 161 161 174 139 176 203 140 162 150 155 151 166 169 179 188 176 186 182 186 185 170 173 169 171 175 184 183 187 184 178 169 171 167 164 168 155 150 130 125 81 70 104 90 171 197 353 251 242 197 184 162 161 188 158 171 171 188 166 151 157 167 175 167 153 157 158 152
20 20 24 25 19 21 26 45 68 49 55 83 95 91 104 141 136 172 146 156 159 161 203 198 209 140 136 139 144 158 155 175 182 184 184 184 187 187 183 183 178 182 184 178 182 183 176 175 160 169 192 170 175 165 163 125 169 169 149 169 330 276 226 205 241 247 217 190 175 175 197 182 180 181 189 156 167 167 176 181 172 157 167 171 178
25 25 21 26 23 19 17 21 42 44 34 43 59 67 50 53 85 50 132 206 113 154 173 182 164 180 158 154 153 165 165 179 185 184 186 191 190 186 190 179 187 181 175 185 184 187 187 182 177 175 177 194 161 179 172 178 158 139 125 95 235 140 303 286 255 230 212 205 185 188 193 184 187 178 181 162 173 182 186 185 177 161 168 178 182
29 28 24 24 26 22 18 23 28 25 28 34 31 32 47 47 47 53 36 67 52 29 45 39 61 106 211 158 134 157 172 179 183 188 194 196 196 198 191 184 191 186 188 190 191 194 187 187 185 185 169 173 187 197 195 185 146 139 168 195 194 143 286 247 209 233 197 200 192 200 188 189 183 183 167 174 184 186 193 174 172 172 182 178 174
31 29 25 24 24 22 21 27 34 26 17 26 24 22 42 36 41 31 32 21 25 49 55 338 322 176 240 152 204 164 171 173 181 190 190 199 204 204 201 195 192 196 192 197 200 201 195 193 191 184 185 184 189 180 208 201 196 192 144 124 135 216 216 208 138 264 185 199 213 196 201 184 183 182 179 191 187 185 179 171 176 177 185 189 184
33 27 26 30 30 27 24 27 34 29 17 13 20 11 34 56 69 82 50 115 241 198 214 214 215 201 209 206 188 185 182 190 183 190 200 199 206 209 208 198 199 199 201 205 204 200 204 201 199 193 196 203 185 165 192 224 211 214 211 192 153 173 178 181 123 235 36 218 197 207 200 200 178 186 194 196 188 187 178 176 177 187 191 192 194
31 27 31 33 36 32 28 30 30 24 18 13 16 19 11 17 20 14 16 13 6 298 285 237 199 206 188 190 201 190 193 189 205 194 199 206 209 213 216 214 205 202 204 207 210 210 208 207 200 202 204 198 167 188 193 196 212 249 235 230 161 149 148 132 197 102 197 281 223 204 217 205 186 186 199 204 193 178 183 172 182 185 189 192 195
27 30 32 30 33 33 30 29 30 26 20 15 14 16 22 11 7 5 9 2 6 330 332 335 354 91 123 179 166 186 194 193 204 209 202 203 210 220 222 225 223 213 202 209 214 215 213 214 209 210 208 203 201 198 196 186 187 211 216 225 227 174 175 187 171 169 160 162 229 240 236 206 200 204 196 199 197 187 179 183 178 180 188 195 192
27 29 30 27 29 32 34 32 32 28 19 18 18 13 18 12 18 15 9 355 359 352 349 345 343 17 95 116 156 179 183 198 201 212 217 208 207 216 221 228 230 231 214 215 219 217 213 204 207 209 211 213 211 213 198 201 200 205 191 225 217 210 213 221 191 153 140 142 213 186 205 210 223 226 210 202 201 192 185 181 178 176 185 193 192
30 31 32 30 28 28 32 32 29 27 20 21 21 19 16 17 17 12 10 355 355 349 356 347 344 347 338 214 175 182 179 188 211 217 222 224 217 215 220 225 231 233 230 223 224 226 226 220 211 211 212 217 217 215 216 206 207 209 204 196 199 186 210 250 247 214 238 178 168 194 187 175 197 227 198 207 198 194 185 178 177 179 183 188 193
30 32 32 31 28 29 29 34 28 25 22 23 24 26 20 20 17 10 9 5 357 359 4 355 351 352 344 327 240 212 192 191 188 210 220 226 224 215 218 229 232 234 234 237 233 228 231 229 222 217 215 216 218 222 227 223 201 210 210 202 205 195 196 197 203 203 187 177 119 184 185 195 198 195 216 202 193 193 188 179 181 185 181 185 190